DW6352 Weather Reports


Display with metric or nautical units.
time (UTC)temp
F
wind
direction
speed
MPH
gust
MPH
rain 1hr
in
rain 24hr
in
rain mn
in
humidity
%
barometer
mb
20260905073015 63 34 4.0 8.0 0.00 0.00 0.00 92 1014.5
20260905071509 62 59 2.0 9.0 0.00 0.00 0.00 92 1014.5
20260905070006 63 57 4.0 9.0 0.00 0.00 0.00 92 1014.4
20260905064630 63 51 3.0 9.0 0.00 0.00 0.00 91 1014.4
20260905063005 63 40 2.0 8.0 0.00 0.00 0.00 91 1014.4
20260905061514 63 355 4.0 9.0 0.00 0.00 0.00 91 1014.2
20260905060012 64 336 4.0 9.0 0.00 0.00 0.00 91 1014.3
20260905054515 64 30 5.0 11.0 0.00 0.00 0.00 90 1014.2
20260905053012 64 57 5.0 11.0 0.00 0.00 0.00 90 1014.3
20260905051520 64 329 5.0 10.0 0.00 0.00 0.00 90 1014.2
20260905050128 64 85 3.0 7.0 0.00 0.00 0.00 90 1014.1
20260905044509 64 29 4.0 9.0 0.00 0.00 0.00 90 1014.0
20260905043014 64 32 3.0 11.0 0.00 0.00 0.00 90 1014.0
20260905041506 64 55 5.0 10.0 0.00 0.00 0.00 90 1014.1
20260905040141 64 40 3.0 10.0 0.00 0.00 0.00 90 1014.2
20260905034510 64 50 5.0 13.0 0.00 0.00 0.00 89 1014.1
20260905033011 64 55 4.0 13.0 0.00 0.00 0.00 89 1014.0
20260905031633 64 67 5.0 12.0 0.00 0.00 0.00 89 1014.1
20260905030008 64 25 5.0 12.0 0.00 0.00 0.00 88 1014.0
20260905024502 64 36 7.0 12.0 0.00 0.00 0.00 88 1013.8
20260905023126 65 71 3.0 10.0 0.00 0.00 0.00 87 1013.6
20260905021514 65 55 3.0 10.0 0.00 0.00 0.00 87 1013.5
20260905020010 66 23 5.0 9.0 0.00 0.00 0.00 86 1013.3
20260905014625 66 52 4.0 11.0 0.00 0.00 0.00 85 1013.3
20260905013015 67 15 4.0 13.0 0.00 0.00 0.00 84 1013.2
20260905011513 68 333 6.0 10.0 0.00 0.00 0.00 83 1013.1
20260905010009 68 49 5.0 11.0 0.00 0.00 0.00 82 1012.8
20260905004513 69 320 5.0 13.0 0.00 0.00 0.00 80 1012.6
20260905003020 70 5 6.0 13.0 0.00 0.00 0.00 78 1012.6
20260905001513 72 24 6.0 12.0 0.00 0.00 0.00 76 1012.4
20260905000007 73 16 7.0 12.0 0.00 0.00 0.00 74 1012.2
20260904234627 75 31 5.0 13.0 0.00 0.00 0.00 72 1012.2
20260904233011 76 46 6.0 12.0 0.00 0.00 0.00 70 1012.1
20260904231503 77 9 9.0 13.0 0.00 0.00 0.00 69 1011.9
20260904230030 78 39 7.0 12.0 0.00 0.00 0.00 68 1011.8
20260904224509 80 11 4.0 12.0 0.00 0.02 0.00 66 1011.7
20260904223127 80 30 4.0 13.0 0.00 0.02 0.00 66 1011.5
20260904221507 80 355 4.0 11.0 0.00 0.02 0.00 65 1011.3
20260904220014 81 44 5.0 10.0 0.00 0.02 0.00 64 1011.1
20260904214631 81 60 5.0 12.0 0.00 0.02 0.00 65 1011.0
20260904213009 81 49 4.0 12.0 0.00 0.02 0.00 63 1011.1
20260904211510 81 12 3.0 10.0 0.00 0.02 0.00 64 1011.1
20260904210005 81 13 5.0 12.0 0.00 0.02 0.00 64 1011.1
20260904204511 81 40 5.0 10.0 0.00 0.02 0.00 64 1011.0
20260904203014 80 26 5.0 12.0 0.00 0.02 0.00 65 1011.1
20260904201506 80 325 4.0 12.0 0.00 0.02 0.00 65 1011.0
20260904200126 80 281 5.0 11.0 0.00 0.02 0.00 66 1011.0
20260904194500 79 26 2.0 12.0 0.00 0.02 0.00 66 1011.0
20260904193006 79 125 2.0 9.0 0.00 0.02 0.00 66 1010.8
20260904191627 79 25 2.0 9.0 0.00 0.02 0.00 69 1010.9
20260904190012 78 34 4.0 10.0 0.00 0.02 0.00 70 1011.0
20260904184509 78 30 3.0 10.0 0.00 0.02 0.00 71 1011.0
20260904183014 77 25 4.0 11.0 0.00 0.02 0.00 71 1011.0
20260904181520 76 19 2.0 6.0 0.00 0.02 0.00 75 1011.0
20260904180021 74 29 4.0 9.0 0.00 0.02 0.00 75 1011.1
20260904174511 73 76 3.0 7.0 0.00 0.02 0.00 78 1011.2
20260904173016 71 330 4.0 10.0 0.00 0.02 0.00 80 1011.4
20260904171513 69 332 5.0 10.0 0.00 0.02 0.00 83 1011.5
20260904170018 69 11 5.0 10.0 0.00 0.02 0.00 84 1011.5
20260904164624 69 46 2.0 10.0 0.00 0.02 0.00 85 1011.4
20260904163128 69 355 4.0 10.0 0.00 0.02 0.00 85 1011.1
20260904161518 68 327 5.0 12.0 0.00 0.02 0.00 85 1011.0
20260904160127 68 20 6.0 11.0 0.00 0.02 0.00 85 1010.9
20260904154510 69 39 5.0 9.0 0.00 0.02 0.00 85 1010.6
20260904153132 69 55 5.0 10.0 0.00 0.02 0.00 85 1010.5
20260904151513 68 16 4.0 10.0 0.00 0.02 0.00 86 1010.2
20260904150016 69 51 6.0 12.0 0.00 0.02 0.00 86 1010.0
20260904144512 69 333 3.0 9.0 0.00 0.02 0.00 87 1009.9
20260904143010 69 5 4.0 12.0 0.00 0.02 0.00 89 1010.0
20260904141508 70 32 4.0 10.0 0.00 0.02 0.00 90 1009.7
20260904140010 70 60 2.0 4.0 0.00 0.02 0.00 90 1009.2
20260904134624 70 26 2.0 4.0 0.00 0.02 0.00 89 1009.0
20260904133126 69 82 2.0 4.0 0.00 0.02 0.00 89 1008.8
20260904131508 69 90 2.0 4.0 0.00 0.02 0.00 89 1008.8
20260904130004 69 105 2.0 6.0 0.00 0.02 0.00 90 1008.7
20260904124623 68 64 2.0 4.0 0.00 0.02 0.00 90 1008.8
20260904123002 68 67 0.0 4.0 0.00 0.02 0.00 90 1008.8
20260904121514 67 67 2.0 4.0 0.00 0.02 0.00 89 1008.7
20260904120011 67 88 2.0 5.0 0.00 0.02 0.00 88 1008.5
20260904114510 67 65 1.0 3.0 0.00 0.02 0.00 88 1008.7
20260904113126 67 65 0.0 5.0 0.00 0.02 0.00 88 1008.4
20260904111513 67 80 2.0 4.0 0.00 0.02 0.00 88 1008.1
20260904110129 67 69 3.0 9.0 0.00 0.02 0.00 88 1007.9
20260904104502 66 60 3.0 9.0 0.00 0.02 0.00 88 1008.1
20260904103008 66 70 5.0 12.0 0.00 0.02 0.00 89 1008.1
20260904101514 66 98 4.0 10.0 0.00 0.02 0.00 88 1008.2
20260904100001 66 99 4.0 10.0 0.00 0.02 0.00 88 1008.2
20260904094506 65 92 5.0 10.0 0.00 0.02 0.00 88 1008.3
20260904093020 65 54 5.0 14.0 0.00 0.02 0.00 88 1008.3
20260904091509 65 52 6.0 11.0 0.00 0.02 0.00 88 1008.4
20260904090007 65 27 5.0 11.0 0.00 0.02 0.00 89 1008.3
20260904084512 65 9 3.0 10.0 0.00 0.02 0.00 89 1008.4
20260904083129 65 5 4.0 14.0 0.00 0.02 0.00 89 1008.2
20260904081510 67 54 5.0 14.0 0.00 0.02 0.00 89 1008.3
20260904080008 69 20 7.0 24.0 0.00 0.02 0.00 89 1007.8
20260904074507 70 15 3.0 4.0 0.00 0.02 0.00 90 1007.2